User: anonymous
Location: Starry Hill Observatory
(46.8582°N, 122.3590°W)
Time: 10:28:56
(UTC-07:00)
Language:

Cosmos 1300 Rocket - Orbit

View from above orbital plane
View from above orbital plane
View from above satellite
View from above satellite

Ground track
Ground track

The orbit data is extracted from the following two-line orbital elements,

1 12786U 81082B   14109.17090282  .00000657  00000-0  75651-4 0  8497
2 12786 082.4888 335.9493 0019313 106.5600 040.6637 14.84074220763469
Epoch (UTC): 19 April 2014 04:06:06
Eccentricity: 0.0019313
inclination: 82.4888°
perigee height: 603 km
apogee height: 630 km
right ascension of ascending node: 335.9493°
argument of perigee: 106.5600°
revolutions per day: 14.84074220
mean anomaly at epoch: 40.6637°
orbit number at epoch: 76346

The dashed part of the orbit path shows where the satellite is in the earth's shadow,  

DLR